Surat Thani, Thailand

6:45 PM ICT on February 13, 2016 (GMT +0700)
Surat Thani

Weather History for VTSB - July, 2013

Change the Weather History Date:

Thursday, July 11, 2013

  Actual Average Record
Temperature  
Mean Temperature 82 °F -  
Max Temperature 91 °F 91 °F - ()
Min Temperature 73 °F 74 °F - ()
Cooling Degree Days 17    
Growing Degree Days 32 (Base 50)    
Moisture  
Dew Point 75 °F    
Average Humidity 88    
Maximum Humidity 100    
Minimum Humidity 54    
Precipitation  
Precipitation 0.00 in 0.19 in - ()
Sea Level Pressure  
Sea Level Pressure 29.80 in    
Wind  
Wind Speed 2 mph ()    
Max Wind Speed 8 mph    
Max Gust Speed -    
Visibility 4.9 miles    
Events Rain    
T = Trace of Precipitation, MM = Missing Value Source: Averaged Metar Reports

Daily Weather History Graph

Daily Weather History Graph

Search for Another Location

Airport or City:

Trip Planner

Search our weather history database for the weather conditions in past years. The results will help you decide how hot, cold, wet, or windy it might be!

Date:

Astronomy

Jul. 11, 2013 Rise Set
Actual Time 6:10 AM ICT 6:47 PM ICT
Civil Twilight 5:47 AM ICT 7:10 PM ICT
Nautical Twilight 5:20 AM ICT 7:36 PM ICT
Astronomical Twilight 4:53 AM ICT 8:03 PM ICT
Moon 8:21 AM ICT (7/11) 8:55 PM ICT (7/11)
Length of Visible Light 13h 22m
Length of Day
12h 37m
Waxing Crescent, 8% of the Moon is Illuminated
Jul 11
Waxing Crescent
Jul 16
First Quarter
Jul 23
Full
Jul 30
Last Quarter
Aug 7
New

Hourly Weather History & Observations

Time (ICT) Temp. Heat Index Dew Point Humidity Pressure Visibility Wind Dir Wind Speed Gust Speed Precip Events Conditions
1:00 AM 75 °F - 74 °F 95% 29.81 in 4 mi Calm Calm - -   Mist
1:00 AM 75.2 °F - 75.2 °F 100% 29.80 in 3.7 mi Calm Calm - N/A   Mostly Cloudy
4:00 AM 75 °F - 74 °F 94% 29.77 in 4 mi Calm Calm - -   Mist
4:00 AM 73.4 °F - 73.4 °F 100% 29.77 in 3.1 mi Calm Calm - N/A   Mostly Cloudy
6:00 AM 73.4 °F - 73.4 °F 100% 29.80 in 3.1 mi Calm Calm - N/A   Mostly Cloudy
7:00 AM 74 °F - 73 °F 94% 29.81 in 4 mi Calm Calm - -   Mist
7:00 AM 73.4 °F - 73.4 °F 100% 29.80 in 4.3 mi Calm Calm - N/A   Mostly Cloudy
8:00 AM 73.4 °F - 73.4 °F 100% 29.80 in 3.1 mi Calm Calm - N/A   Mostly Cloudy
9:00 AM 77.0 °F - 75.2 °F 94% 29.83 in 5.0 mi SW 5.8 mph - N/A   Mostly Cloudy
10:00 AM 82 °F - 76 °F 78% 29.84 in 5 mi South 2.3 mph - -   Mist
10:00 AM 80.6 °F 87.1 °F 77.0 °F 89% 29.83 in 6.2 mi SW 3.5 mph - N/A   Mostly Cloudy
11:00 AM 84.2 °F 94.1 °F 77.0 °F 79% 29.83 in 5.6 mi SSW 6.9 mph - N/A   Mostly Cloudy
12:00 PM 86.0 °F 93.4 °F 73.4 °F 66% 29.83 in 6.2 mi SSW 6.9 mph - N/A   Mostly Cloudy
1:00 PM 90 °F - 75 °F 54% 29.82 in 6 mi SSW 4.6 mph - -   Scattered Clouds
1:00 PM 89.6 °F 99.8 °F 75.2 °F 62% 29.83 in 6.2 mi SSW 8.1 mph - N/A   Mostly Cloudy
2:00 PM 87.8 °F 97.6 °F 75.2 °F 66% 29.80 in 6.2 mi SSW 8.1 mph - N/A   Mostly Cloudy
3:00 PM 77.0 °F - 77.0 °F 100% 29.80 in 5.0 mi West 8.1 mph - N/A   Mostly Cloudy
4:00 PM 82 °F - 78 °F 85% 29.79 in 6 mi SW 2.3 mph - - Rain Light Rain
4:00 PM 82.4 °F 90.9 °F 77.0 °F 84% 29.77 in 5.0 mi SSW 6.9 mph - N/A   Scattered Clouds
6:00 PM 80.6 °F 87.1 °F 77.0 °F 89% 29.77 in 5.0 mi SW 4.6 mph - N/A   Scattered Clouds
7:00 PM 79 °F - 76 °F 88% 29.78 in 6 mi Calm Calm - -   Partly Cloudy
7:00 PM 78.8 °F - 77.0 °F 94% 29.77 in 5.0 mi SSE 3.5 mph - N/A   Mostly Cloudy
8:00 PM 77.0 °F - 77.0 °F 100% 29.80 in 5.0 mi SSE 3.5 mph - N/A   Scattered Clouds
9:00 PM 77.0 °F - 77.0 °F 100% 29.83 in 5.0 mi Calm Calm - N/A   Scattered Clouds
10:00 PM 74 °F - 73 °F 96% 29.83 in 4 mi Calm Calm - -   Mist